Location: Skalnate Pleso
(49.1889°N, 20.2450°E)
Time: 16:30:51
(UTC+02:00)

COSMOS 2428 - Pass Details

Date: 26 February 2020
Orbit: 846 x 856 km, 70.9° (Epoch: 07 April)

Event Time Altitude Azimuth Distance (km) Brightness Sun altitude
Exits shadow 01:58:42 16° 10° (N) 2,110 5.2 -41.9°
Drops below altitude 10° 01:59:55 10° 17° (NNE) 2,500 5.7 -41.7°
Sets 02:02:37 0° 26° (NNE) 3,440 6.6 -41.4°
